DELTA 1 DEB

Satellite information

Favourite Embed

Satellite Type and Status

DEBRISIN ORBIT

Key statistics

Satellite DELTA 1 DEB at a glance.

Uptime

18403

Days in orbit

Revolutions

≈ 13.4

Per day

Orbit

SSO

Sun Synchronous Orbit

Inclination

99.9

Latest

Satellite identification and parameters

Extended collection of information and parameters for DELTA 1 DEB.

Object identification

Identified? True

Debris? True

Object name: DELTA 1 DEB

International designator: 1975-052EJ

Object number (NORAD): 21450

Object ID (CCSDS): 21450

Country: UNITED STATES OF AMERICA (US)

Current information (Y/N): Y

RCS size: SMALL

Orbital parameters

Period: 107.842 minutes

Inclination: 99.8694 deg

SMA: 7505.018 km

Apoapsis: 1171.33 km

Periapsis: 1082.435 km

RAAN: 191.9677 deg

Eccentricy: 0.00592232

Argument of periapsis: 86.5292 deg

Mean anomaly: 300.3654 deg

Mean motion: 13.35288775 rev/day

Mean motion (dot): 0.00000192 rev/day2

B* drag term: 0.00045831921 1/REarth

Two-line elements (TLE)

Creation date: Oct. 30, 2025, 3:32 a.m.

Reference frame: TEME

Reference center: EARTH

Epoch: Oct. 29, 2025, 4:34 p.m. UTC

TLE line 0: 0 DELTA 1 DEB

TLE line 1: 1 21450U 75052EJ 25302.69074473 .00000192 00000-0 45832-3 0 9990

TLE line 2: 2 21450 99.8694 191.9677 0059223 86.5292 300.3654 13.35288775678654

Live tracking on map

Real-time ground track for satellite DELTA 1 DEB.

In-orbit conjunctions

A list of the most updated potential collisions computed for object DELTA 1 DEB.

Target Orbit TCA Probability of collision Miss distance Type
CZ-4B DEB SSO 2025-10-04 06:25:26 0.000254401 172.0 (m) DEBRIS

Associated space launch

Experimental meteorological satellite

DELTA 1 DEB was lifted into orbit during the mission ‘Delta 2910 | Nimbus 6’, on board a Delta 2910 space rocket.

The launch took place on June 12, 1975, 8:12 a.m. from Space Launch Complex 2W.

For more information about the launch, click the button.

Launch to space Delta 2910 | Nimbus 6
Delta 2910 | Nimbus 6

Agency: N/A

Status: Launch Successful

Launch date: June 12, 1975, 8:12 a.m. UTC

Rocket: Delta 2910

Launch pad: Space Launch Complex 2W

Location: Vandenberg SFB, CA, USA

...

Latest news about this satellite

There are no fresh news available about this satellite. Check back as we update our databases every day.


Newsletter sign-up

Weekly statistics, charts and insights to help you stay on top of the space industry.